Location: Novo Ouro Preto
(19.8840°S, 43.9844°W)
Time: 09:19:42
(UTC+00:00)

Orbus 7S - Pass Details

Date: 18 September 2020
Orbit: 363 x 11857 km, 27.2° (Epoch: 22 October)

Event Time Altitude Azimuth Distance (km) Brightness Sun altitude
Rises 21:17:31 0° 248° (WSW) 2,604 8.3 -7.0°
Reaches altitude 10° 21:19:52 10° 242° (WSW) 1,438 6.6 -7.6°
Maximum altitude 21:22:29 51° 163° (SSE) 468 2.9 -8.2°
Enters shadow 21:25:02 12° 85° (E) 1,411 4.7 -8.8°
